Weather Service Report


922 
ASUS43 KTOP 262108
RWRKS 

WEATHER ROUNDUP FOR KANSAS
NATIONAL WEATHER SERVICE GOODLAND KS
300 PM CST SUN FEB 26 2017

NOTE:  "FAIR" INDICATES FEW OR NO CLOUDS BELOW 12,000 FEET WITH NO
SIGNIFICANT WEATHER AND/OR OBSTRUCTIONS TO VISIBILITY.

KSZ001>006-013>018-027>032-041>047-262200-
NORTHWEST KANSAS
  
CITY           SKY/WX    TMP DP  RH WIND       PRES   REMARKS
GOODLAND       SUNNY     43   5  20 E5        29.84F                  
HAYS           SUNNY     49   6  17 CALM      29.90F                  
HILL CITY      SUNNY     49   7  18 NW7       29.89F                  
RUSSELL        SUNNY     51   8  17 W7        29.88F                  
$$

KSZ061>065-074>080-084>089-262200-
SOUTHWEST KANSAS
  
CITY           SKY/WX    TMP DP  RH WIND       PRES   REMARKS
DODGE CITY     SUNNY     52  11  19 E7        29.86F                  
ELKHART          N/A     51  11  20 NE7         N/A                   
GARDEN CITY    SUNNY     50   8  18 NE5       29.85F                  
GREAT BEND     SUNNY     51  15  23 NE13      29.89F                  
LIBERAL        SUNNY     52  12  20 E3        29.85F                  
PRATT          SUNNY     48  16  27 E8        29.88S                  
$$

KSZ066>073-081>083-090>101-262200-
SOUTHEAST KANSAS
  
CITY           SKY/WX    TMP DP  RH WIND       PRES   REMARKS
CHANUTE        CLOUDY    51  27  39 S15       29.94F                  
COFFEYVILLE    CLOUDY    49  32  52 E9        29.94F                  
HUTCHINSON     SUNNY     53  22  29 N10       29.89F                  
MEDICINE LODGE   N/A     53  21  28 E8        29.87F                  
NEWTON         SUNNY     50  24  36 SE6       29.90F                  
PARSONS        CLOUDY    50  27  40 SE13      29.95F                  
WICHITA INTL   MOSUNNY   51  25  36 SE5       29.89F                  
WICHITA JABRA  SUNNY     51  25  36 SW6       29.89F                  
WICHITA MCCONL SUNNY     52  25  34 W5        29.89F                  
WINFIELD       SUNNY     52  27  38 NW7       29.90F                  
$$

KSZ007>012-019>026-033>040-048>060-102>105-262200-
NORTHEAST KANSAS
  
CITY           SKY/WX    TMP DP  RH WIND       PRES   REMARKS
CONCORDIA      SUNNY     52  13  21 W12G18    29.89F                  
EMPORIA        SUNNY     51  25  36 S7        29.90F                  
LAWRENCE       MOSUNNY   53  24  32 SE10      29.93F                  
MANHATTAN      SUNNY     53  24  32 NE5       29.91F                  
MARYSVILLE     MOSUNNY   52  21  30 W9        29.89F                  
OLATHE IND     SUNNY     50  27  40 S12       29.94F                  
OLATHE EXE     MOSUNNY   46  27  47 S9        29.94F                  
SALINA         SUNNY     54  19  25 NE12      29.91F                  
TOPEKA BILLARD SUNNY     52  24  33 SW7       29.92F                  
TOPEKA FORBES  SUNNY     53  24  32 CALM      29.92F                  
$$
  

Return to Home page


Western Regional Climate Center, wrcc@dri.edu